Location: Vancouver
(49.2500°N, 123.1330°W)
Time: 15:03:16
(UTC-07:00)

AO-27 - Visible Passes

Search period start: 03 July 2015 00:00
Search period end: 13 July 2015 00:00
Orbit: 787 x 797 km, 98.7° (Epoch: 02 July)

Date Brightness Start Highest point End Pass type
(mag) Time Alt. Az. Time Alt. Az. Time Alt. Az.
03 Jul 10.2 02:10:46 10° ENE 02:11:32 10° E 02:12:37 10° E visible
03 Jul 7.9 03:46:55 10° NNE 03:52:10 70° ESE 03:57:24 10° S visible
04 Jul 8.7 03:18:11 10° NNE 03:23:06 40° E 03:28:01 10° SSE visible
05 Jul 9.5 02:49:44 10° NE 02:53:53 24° E 02:58:06 10° SE visible
05 Jul 8.0 04:28:39 10° N 04:33:48 56° WNW 04:38:53 10° SW visible
06 Jul 10.0 02:22:01 10° ENE 02:24:29 14° E 02:27:13 10° ESE visible
06 Jul 7.7 03:59:37 10° NNE 04:04:54 87° ESE 04:10:09 10° SSW visible
07 Jul 8.4 03:30:47 10° NNE 03:35:53 51° E 03:40:59 10° S visible
08 Jul 9.2 03:02:12 10° NNE 03:06:44 30° E 03:11:19 10° SSE visible
09 Jul 9.9 02:34:03 10° NE 02:37:26 18° E 02:40:56 10° SE visible
09 Jul 7.7 04:12:22 10° NNE 04:17:37 76° WNW 04:22:49 10° SSW visible
10 Jul 8.0 03:43:26 10° NNE 03:48:39 65° ESE 03:53:50 10° S visible
11 Jul 8.8 03:14:43 10° NNE 03:19:34 37° E 03:24:24 10° SSE visible
12 Jul 9.6 02:46:21 10° NE 02:50:19 22° E 02:54:23 10° SE visible
12 Jul 7.9 04:25:08 10° N 04:30:18 60° WNW 04:35:25 10° SSW visible
